Location: Chevoux
(46.3801°N, 4.9476°E)
Time: 01:57:11
(UTC+00:00)

Transit 4A - All Passes

Search period start: 12 May 2021 00:00
Search period end: 22 May 2021 00:00
Orbit: 870 x 974 km, 66.8° (Epoch: 11 May)

Date Brightness Start Highest point End Pass type
(mag) Time Alt. Az. Time Alt. Az. Time Alt. Az.
12 May - 00:56:22 10° NNW 01:00:52 22° NE 01:05:18 10° E visible
12 May - 02:42:12 10° NNW 02:48:06 85° ENE 02:53:55 10° SE visible
12 May - 04:30:04 10° WNW 04:33:39 17° WSW 04:37:13 10° SW daylight
12 May - 16:09:59 10° ESE 16:11:58 12° E 16:13:56 10° E daylight
12 May - 17:51:07 10° SSW 17:57:15 69° ESE 18:03:16 10° NE daylight
12 May - 19:38:51 10° W 19:44:07 29° NW 19:49:18 10° NNE visible
12 May - 21:30:38 10° NW 21:32:38 12° NNW 21:34:35 10° N visible
12 May - 23:20:13 10° N 23:21:59 11° NNE 23:23:44 10° NNE visible
13 May - 01:05:30 10° NNW 01:10:31 28° NE 01:15:27 10° E visible
13 May - 02:51:33 10° NW 02:57:23 68° WSW 03:03:08 10° SSE visible
13 May - 04:41:27 10° W 04:42:35 11° W 04:43:43 10° WSW daylight
13 May - 16:16:57 10° SE 16:20:56 18° ESE 16:24:51 10° ENE daylight
13 May - 18:00:22 10° SSW 18:06:34 86° NW 18:12:37 10° NNE daylight
13 May - 19:49:02 10° W 19:53:46 23° NW 19:58:25 10° NNE visible
13 May - 21:41:37 10° NNW 21:42:34 10° N 21:43:31 10° N visible
13 May - 23:29:15 10° N 23:31:53 13° NNE 23:34:30 10° NE visible
14 May - 01:14:40 10° NNW 01:20:06 36° NE 01:25:26 10° ESE visible
14 May - 03:01:00 10° NW 03:06:35 47° WSW 03:12:06 10° S visible
14 May - 16:24:57 10° SSE 16:29:57 26° ESE 16:34:53 10° NE daylight
14 May - 18:09:49 10° SW 18:15:55 62° NW 18:21:53 10° NNE daylight
14 May - 19:59:24 10° WNW 20:03:29 18° NNW 20:07:32 10° NNE visible
14 May - 23:38:19 10° N 23:41:44 15° NNE 23:45:07 10° ENE visible
15 May - 01:23:53 10° NNW 01:29:35 49° NE 01:35:12 10° SE visible
15 May - 03:10:36 10° NW 03:15:42 32° WSW 03:20:46 10° S visible
15 May - 16:33:26 10° S 16:39:04 38° ESE 16:44:35 10° NE daylight
15 May - 18:19:28 10° WSW 18:25:21 46° NW 18:31:07 10° NNE daylight
15 May - 20:09:56 10° WNW 20:13:17 15° NNW 20:16:36 10° N visible
15 May - 23:47:25 10° NNW 23:51:31 19° NNE 23:55:34 10° ENE visible
16 May - 01:33:08 10° NNW 01:38:59 69° NE 01:44:47 10° SE visible
16 May - 03:20:26 10° WNW 03:24:45 22° WSW 03:29:04 10° SSW visible
16 May - 16:42:15 10° SSW 16:48:14 55° ESE 16:54:06 10° NE daylight
16 May - 18:29:20 10° WSW 18:34:52 34° NW 18:40:18 10° NNE daylight
16 May - 20:20:37 10° NW 20:23:09 13° NNW 20:25:40 10° N visible
16 May - 22:11:25 10° N 22:12:29 10° N 22:13:33 10° NNE visible
16 May - 23:56:32 10° NNW 00:01:13 24° NE 00:05:51 10° E visible
17 May - 01:42:25 10° NW 01:48:19 85° WSW 01:54:08 10° SSE visible
17 May - 03:30:44 10° WNW 03:33:44 14° WSW 03:36:44 10° SW visible
17 May - 15:09:11 10° SE 15:12:04 14° ESE 15:14:56 10° ENE daylight
17 May - 16:51:20 10° SSW 16:57:29 78° ESE 17:03:30 10° NE daylight
17 May - 18:39:24 10° W 18:44:28 26° NW 18:49:27 10° NNE daylight
17 May - 20:31:28 10° NNW 20:33:04 11° NNW 20:34:40 10° N visible
17 May - 22:20:22 10° N 22:22:26 12° NNE 22:24:28 10° NE visible
18 May - 00:05:41 10° NNW 00:10:51 30° NE 00:15:56 10° ESE visible
18 May - 01:51:49 10° NW 01:57:34 60° WSW 02:03:15 10° SSE visible
18 May - 15:16:39 10° SSE 15:21:03 21° ESE 15:25:23 10° ENE daylight
18 May - 17:00:38 10° SW 17:06:48 77° NW 17:12:49 10° NNE daylight
18 May - 18:49:38 10° W 18:54:08 21° NNW 18:58:34 10° NNE daylight
18 May - 20:42:48 10° N 20:43:02 10° N 20:43:15 10° N visible
18 May - 22:29:24 10° N 22:32:19 14° NNE 22:35:11 10° NE visible
19 May - 00:14:52 10° NNW 00:20:23 40° NE 00:25:50 10° ESE visible
19 May - 02:01:18 10° NW 02:06:44 41° WSW 02:12:08 10° S visible
19 May - 15:24:52 10° SSE 15:30:07 30° ESE 15:35:16 10° NE daylight
19 May - 17:10:10 10° SW 17:16:11 56° NW 17:22:05 10° NNE daylight
19 May - 19:00:04 10° WNW 19:03:53 17° NNW 19:07:39 10° NNE daylight
19 May - 22:38:29 10° NNW 22:42:08 17° NNE 22:45:45 10° ENE visible
20 May - 00:24:05 10° NNW 00:29:51 55° NE 00:35:32 10° SE visible
20 May - 02:10:58 10° NW 02:15:51 28° WSW 02:20:41 10° SSW visible
20 May - 15:33:28 10° S 15:39:14 43° ESE 15:44:53 10° NE daylight
20 May - 17:19:54 10° WSW 17:25:39 41° NW 17:31:17 10° NNE daylight
20 May - 19:10:39 10° NW 19:13:42 14° NNW 19:16:44 10° N daylight
20 May - 22:47:34 10° NNW 22:51:53 20° NNE 22:56:09 10° E visible
21 May - 00:33:20 10° NNW 00:39:13 77° NE 00:45:02 10° SE visible
21 May - 02:20:56 10° WNW 02:24:53 19° WSW 02:28:48 10° SSW visible
21 May - 15:42:22 10° SSW 15:48:26 62° ESE 15:54:22 10° NE daylight
21 May - 17:29:50 10° WSW 17:35:11 31° NW 17:40:27 10° NNE daylight
21 May - 19:21:24 10° NW 19:23:35 12° NNW 19:25:45 10° N daylight
21 May - 21:11:31 10° N 21:12:56 11° NNE 21:14:21 10° NNE visible
21 May - 22:56:43 10° NNW 23:01:34 26° NE 23:06:22 10° E visible
